This is the latest recevied weather packets stored in our database for station/object SV9TNF-2. If no packets are shown the sender has not sent any weather packets the latest 10 day(s).
| Time | Temp. | Humidity | Pressure | Rain* | Wind** | Luminosity | Snow |
|---|---|---|---|---|---|---|---|
| 1777943871 | 12.22° C | 85% | 1023.7 hPa | 0 mm | 4.47 m/s, 309° | - | - |
| 1777943571 | 12.22° C | 84% | 1023.7 hPa | 0 mm | 3.13 m/s, 183° | - | - |
| 1777943271 | 12.78° C | 84% | 1023.7 hPa | 0 mm | 4.92 m/s, 178° | - | - |
| 1777942971 | 12.78° C | 84% | 1023.7 hPa | 0 mm | 0.89 m/s, 241° | - | - |
| 1777942671 | 12.78° C | 84% | 1024.4 hPa | 0 mm | 2.68 m/s, 247° | - | - |
| 1777942371 | 12.78° C | 84% | 1024.4 hPa | 0 mm | 4.02 m/s, 202° | - | - |
| 1777942071 | 12.78° C | 84% | 1024.4 hPa | 0 mm | 3.58 m/s, 197° | - | - |
| 1777941770 | 12.78° C | 84% | 1024.4 hPa | 0 mm | 6.26 m/s, 216° | - | - |
| 1777941470 | 12.78° C | 83% | 1024.4 hPa | 0 mm | 4.02 m/s, 204° | - | - |
| 1777941170 | 12.78° C | 83% | 1024.4 hPa | 0 mm | 4.47 m/s, 197° | - | - |
| 1777940870 | 12.78° C | 83% | 1024.4 hPa | 0 mm | 4.02 m/s, 200° | - | - |
| 1777940570 | 12.78° C | 83% | 1024.4 hPa | 0 mm | 2.68 m/s, 181° | - | - |
| 1777940270 | 12.78° C | 83% | 1024.4 hPa | 0 mm | 4.92 m/s, 190° | - | - |
| 1777939970 | 12.78° C | 83% | 1024.4 hPa | 0 mm | 4.47 m/s, 244° | - | - |
| 1777939670 | 12.78° C | 83% | 1024.4 hPa | 0 mm | 4.92 m/s, 202° | - | - |
| 1777939370 | 12.78° C | 83% | 1024.4 hPa | 0 mm | 2.68 m/s, 252° | - | - |
| 1777939069 | 12.78° C | 83% | 1024.7 hPa | 0 mm | 6.71 m/s, 180° | - | - |
| 1777938770 | 12.78° C | 83% | 1024.7 hPa | 0 mm | 2.24 m/s, 271° | - | - |
| 1777938470 | 12.78° C | 83% | 1024.7 hPa | 0 mm | 4.02 m/s, 182° | - | - |
| 1777938169 | 12.78° C | 83% | 1024.7 hPa | 0 mm | 4.47 m/s, 195° | - | - |
| 1777937869 | 12.22° C | 83% | 1024.7 hPa | 0 mm | 4.92 m/s, 232° | - | - |
| 1777937569 | 12.22° C | 83% | 1024.7 hPa | 0 mm | 3.58 m/s, 187° | - | - |
| 1777937269 | 12.22° C | 83% | 1024.7 hPa | 0 mm | 4.92 m/s, 207° | - | - |
| 1777936969 | 12.22° C | 82% | 1024.7 hPa | 0 mm | 5.81 m/s, 232° | - | - |
| 1777936669 | 12.22° C | 82% | 1024.7 hPa | 0 mm | 3.58 m/s, 199° | - | - |
* Rain latest hour (hover to see other rain measurements)
** Current wind speed in m/s (hover to see current wind gust speed)